sat.trackr.live / text

‹ back to catalog

STARLINK-32177

NORAD 60441 · 2024-144S

PAYLOAD ACTIVE UNKNOWN

§ Identity

Operator
Country
US
Launch date
2024-08-12
Launch site
AFETR
Launch vehicle
Mass (kg)
RCS (m²)

Purposes: comms

External: N2YO · Heavens-Above · Gunter

§ Orbital elements

Epoch: 2026-05-24T13:51:29.361024Z

Period
93.85 min
Inclination
53.1592°
Eccentricity
0.0001069
Mean motion
15.34384621 rev/d
Perigee alt
462.0 km
Apogee alt
463.5 km
Semi-major
6,840.9 km
B*
3.3453e-6
RAAN
223.5248°
Arg perigee
73.7928°
Mean anomaly
286.3192°
Rev number
10,094

§ Raw data

STARLINK-321771 60441U 24144S   26144.57742316 -.00000263  00000+0  33453-5 0  99962 60441  53.1592 223.5248 0001069  73.7928 286.3192 15.34384621100942

JSON: /api/v1/satellites/60441 · /tle

For live sub-satellite position, see the globe view (requires WebGL).

§ Visibility from observer

Set your observer location to see the next 7 days of passes ≥ 10°. The values pass through the URL so the page stays shareable.

No JS? Fill the form by hand. The geolocation button needs JavaScript.